{"data":{"norad_id":65597,"epoch":"2026-05-25T03:11:46.752000Z","epoch_age_seconds":66611,"freshness":"FRESH","line1":"1 65597U 25207F   26145.13318000 -.00010450  00000+0 -72171-3 0  9994","line2":"2 65597  97.4542 213.6429 0001996 197.9744 162.1412 15.05626532 39765","mean_motion":15.05626532,"eccentricity":0.0001996,"inclination_deg":97.4542,"raan_deg":213.6429,"arg_perigee_deg":197.9744,"mean_anomaly_deg":162.1412,"bstar":-0.00072171,"rev_number":3976,"period_min":95.641247639757,"perigee_km":548.20036779739,"apogee_km":550.96591367758,"semimajor_km":6927.7201407375,"source":"CELESTRAK","updated_at":"2026-05-25T13:38:20.852784Z"}}